XBPDL MMMX-MMMX

Flight info

Callsign XBPDL
Flight time 0h 31m
Altitude 8500
Route MEX
Aircraft P28A/L-SD/C

Departure

Time 2026-05-04 01:06
Airport Mexico City Benito Juárez International Airport (MMMX)

Arrival

Time 2026-05-04 01:37
Airport Mexico City Benito Juárez International Airport (MMMX)
Time Latitude Longitude Altitude Speed Heading
2026-05-04 00:51 19.42772 -99.07768 7297 ft 0 kts 239°
2026-05-04 00:55 19.42772 -99.07767 7297 ft 0 kts 239°
2026-05-04 00:55 19.42773 -99.07767 7297 ft 0 kts 239°
2026-05-04 00:57 19.42776 -99.07761 7297 ft 2 kts 239°
2026-05-04 00:57 19.42783 -99.07749 7297 ft 2 kts 242°
2026-05-04 00:58 19.42786 -99.07739 7297 ft 1 kts 259°
2026-05-04 00:58 19.42785 -99.07734 7297 ft 1 kts 305°
2026-05-04 00:58 19.42781 -99.07731 7297 ft 0 kts 328°
2026-05-04 00:58 19.42781 -99.07730 7297 ft 0 kts 328°
2026-05-04 00:59 19.42782 -99.07731 7297 ft 1 kts 328°
2026-05-04 00:59 19.42800 -99.07742 7297 ft 5 kts 333°
2026-05-04 00:59 19.42832 -99.07778 7297 ft 9 kts 264°
2026-05-04 01:00 19.42798 -99.07840 7297 ft 11 kts 239°
2026-05-04 01:00 19.42755 -99.07919 7297 ft 14 kts 239°
2026-05-04 01:00 19.42699 -99.08023 7297 ft 18 kts 239°
2026-05-04 01:00 19.42635 -99.08142 7297 ft 17 kts 271°
2026-05-04 01:01 19.42694 -99.08208 7297 ft 9 kts 326°
2026-05-04 01:01 19.42740 -99.08228 7297 ft 6 kts 350°
2026-05-04 01:01 19.42770 -99.08225 7297 ft 4 kts 28°
2026-05-04 01:01 19.42796 -99.08210 7297 ft 4 kts 32°
2026-05-04 01:02 19.42801 -99.08207 7297 ft 0 kts 30°
2026-05-04 01:02 19.42800 -99.08207 7297 ft 0 kts 30°
2026-05-04 01:04 19.42801 -99.08206 7297 ft 2 kts 31°
2026-05-04 01:04 19.42877 -99.08161 7298 ft 22 kts 30°
2026-05-04 01:04 19.43044 -99.07974 7299 ft 50 kts 57°
2026-05-04 01:04 19.43269 -99.07570 7303 ft 75 kts 56°
2026-05-04 01:05 19.43549 -99.07082 7432 ft 80 kts 55°
2026-05-04 01:05 19.43844 -99.06559 7533 ft 85 kts 54°
2026-05-04 01:05 19.44150 -99.06037 7763 ft 79 kts 56°
2026-05-04 01:05 19.44316 -99.05447 7809 ft 94 kts 90°
2026-05-04 01:06 19.44015 -99.04830 8007 ft 98 kts 134°
2026-05-04 01:06 19.43412 -99.04461 8180 ft 99 kts 151°
2026-05-04 01:06 19.42810 -99.04166 8452 ft 91 kts 171°
2026-05-04 01:06 19.42225 -99.04346 8536 ft 91 kts 222°
2026-05-04 01:07 19.41849 -99.04889 8690 ft 90 kts 236°
2026-05-04 01:07 19.41520 -99.05424 8766 ft 84 kts 238°
2026-05-04 01:07 19.41217 -99.05973 8713 ft 92 kts 238°
2026-05-04 01:07 19.40892 -99.06561 8759 ft 89 kts 237°
2026-05-04 01:08 19.40578 -99.07066 8793 ft 74 kts 235°
2026-05-04 01:08 19.40286 -99.07524 8640 ft 77 kts 234°
2026-05-04 01:08 19.40178 -99.08140 8059 ft 95 kts 291°
2026-05-04 01:08 19.40670 -99.08422 7756 ft 81 kts 359°
2026-05-04 01:09 19.41203 -99.08472 7665 ft 73 kts 358°
2026-05-04 01:09 19.41704 -99.08511 7600 ft 70 kts
2026-05-04 01:09 19.42216 -99.08566 7503 ft 78 kts
2026-05-04 01:09 19.42697 -99.08394 7423 ft 76 kts 37°
2026-05-04 01:10 19.43039 -99.07971 7316 ft 72 kts 61°
2026-05-04 01:10 19.43274 -99.07567 7299 ft 57 kts 55°
2026-05-04 01:10 19.43490 -99.07187 7391 ft 64 kts 51°
2026-05-04 01:10 19.43744 -99.06770 7438 ft 72 kts 62°
2026-05-04 01:11 19.43979 -99.06344 7599 ft 68 kts 58°
2026-05-04 01:11 19.43989 -99.05861 7767 ft 82 kts 114°
2026-05-04 01:11 19.43522 -99.05413 7835 ft 97 kts 147°
2026-05-04 01:11 19.42942 -99.05068 8008 ft 93 kts 146°
2026-05-04 01:12 19.42357 -99.04820 8198 ft 96 kts 176°
2026-05-04 01:12 19.41778 -99.04974 8544 ft 81 kts 224°
2026-05-04 01:12 19.41313 -99.05376 8526 ft 92 kts 223°
2026-05-04 01:12 19.40915 -99.05909 8653 ft 87 kts 233°
2026-05-04 01:13 19.40437 -99.06266 8506 ft 99 kts 169°
2026-05-04 01:13 19.40078 -99.05657 8529 ft 112 kts 86°
2026-05-04 01:13 19.40573 -99.05104 8536 ft 115 kts
2026-05-04 01:13 19.41171 -99.05480 8578 ft 104 kts 285°
2026-05-04 01:14 19.40885 -99.06098 8521 ft 105 kts 198°
2026-05-04 01:14 19.40274 -99.05829 8611 ft 109 kts 123°
2026-05-04 01:14 19.40457 -99.05052 8550 ft 118 kts 35°
2026-05-04 01:14 19.41203 -99.05069 8514 ft 114 kts 321°
2026-05-04 01:15 19.41449 -99.05758 8526 ft 103 kts 255°
2026-05-04 01:15 19.40921 -99.06180 8507 ft 103 kts 178°
2026-05-04 01:15 19.40390 -99.05751 8649 ft 99 kts 114°
2026-05-04 01:15 19.40652 -99.05094 8562 ft 108 kts 14°
2026-05-04 01:16 19.41281 -99.05365 8581 ft 101 kts 297°
2026-05-04 01:16 19.41232 -99.06042 8509 ft 102 kts 226°
2026-05-04 01:16 19.40592 -99.06136 8589 ft 101 kts 158°
2026-05-04 01:16 19.40115 -99.05558 8618 ft 108 kts 104°
2026-05-04 01:17 19.40345 -99.04834 8599 ft 113 kts 41°
2026-05-04 01:17 19.41061 -99.04718 8592 ft 109 kts 324°
2026-05-04 01:17 19.41287 -99.05414 8559 ft 105 kts 249°
2026-05-04 01:17 19.40699 -99.05774 8518 ft 107 kts 173°
2026-05-04 01:18 19.40244 -99.05165 8406 ft 118 kts 89°
2026-05-04 01:18 19.40712 -99.04501 8352 ft 118 kts 19°
2026-05-04 01:18 19.41443 -99.04637 8457 ft 110 kts 312°
2026-05-04 01:18 19.41591 -99.05375 8448 ft 108 kts 250°
2026-05-04 01:19 19.41227 -99.06051 8535 ft 100 kts 237°
2026-05-04 01:19 19.40901 -99.06762 8238 ft 115 kts 243°
2026-05-04 01:19 19.40506 -99.07465 8327 ft 100 kts 235°
2026-05-04 01:19 19.40087 -99.08045 8178 ft 96 kts 231°
2026-05-04 01:20 19.39729 -99.08673 7885 ft 104 kts 256°
2026-05-04 01:20 19.39624 -99.09330 7829 ft 86 kts 291°
2026-05-04 01:20 19.40020 -99.09767 7784 ft 81 kts 330°
2026-05-04 01:20 19.40474 -99.10061 7817 ft 76 kts 333°
2026-05-04 01:21 19.40970 -99.10145 7744 ft 77 kts 11°
2026-05-04 01:21 19.41433 -99.09877 7709 ft 77 kts 45°
2026-05-04 01:21 19.41805 -99.09512 7687 ft 77 kts 28°
2026-05-04 01:21 19.42298 -99.09183 7655 ft 93 kts 42°
2026-05-04 01:22 19.42668 -99.08624 7455 ft 87 kts 54°
2026-05-04 01:22 19.42952 -99.08128 7304 ft 71 kts 53°
2026-05-04 01:22 19.43177 -99.07745 7300 ft 58 kts 58°
2026-05-04 01:22 19.43422 -99.07311 7350 ft 74 kts 51°
2026-05-04 01:23 19.43704 -99.06850 7523 ft 73 kts 52°
2026-05-04 01:23 19.43956 -99.06352 7641 ft 81 kts 63°
2026-05-04 01:23 19.44231 -99.05841 7851 ft 78 kts 50°
2026-05-04 01:23 19.44742 -99.05630 7959 ft 90 kts 345°
2026-05-04 01:24 19.45127 -99.06186 8130 ft 94 kts 307°
2026-05-04 01:24 19.45611 -99.06580 8428 ft 90 kts 324°
2026-05-04 01:24 19.46085 -99.07059 8449 ft 99 kts 309°
2026-05-04 01:24 19.46462 -99.07656 8636 ft 93 kts 297°
2026-05-04 01:25 19.46524 -99.08289 8696 ft 95 kts 231°
2026-05-04 01:25 19.46124 -99.08879 8702 ft 102 kts 231°
2026-05-04 01:25 19.45698 -99.09438 8726 ft 105 kts 238°
2026-05-04 01:25 19.45277 -99.10087 8627 ft 110 kts 235°
2026-05-04 01:26 19.44724 -99.10557 8383 ft 104 kts 186°
2026-05-04 01:26 19.44108 -99.10217 7819 ft 101 kts 110°
2026-05-04 01:26 19.43767 -99.09635 7646 ft 96 kts 131°
2026-05-04 01:26 19.43261 -99.09192 7570 ft 94 kts 129°
2026-05-04 01:27 19.43038 -99.08636 7406 ft 78 kts 58°
2026-05-04 01:27 19.43261 -99.08159 7299 ft 66 kts 54°
2026-05-04 01:27 19.43473 -99.07786 7299 ft 62 kts 60°
2026-05-04 01:27 19.43713 -99.07338 7405 ft 71 kts 56°
2026-05-04 01:28 19.43986 -99.06893 7545 ft 74 kts 56°
2026-05-04 01:28 19.44254 -99.06393 7680 ft 80 kts 48°
2026-05-04 01:28 19.44502 -99.06106 7782 ft 82 kts 30°
2026-05-04 01:28 19.45079 -99.06236 7849 ft 91 kts 332°
2026-05-04 01:29 19.45607 -99.06649 7988 ft 95 kts 327°
2026-05-04 01:29 19.46116 -99.07096 8210 ft 96 kts 321°
2026-05-04 01:29 19.46345 -99.07744 8373 ft 106 kts 262°
2026-05-04 01:29 19.45962 -99.08416 8667 ft 96 kts 227°
2026-05-04 01:30 19.45496 -99.08934 8740 ft 94 kts 227°
2026-05-04 01:30 19.45109 -99.09497 8774 ft 95 kts 236°
2026-05-04 01:30 19.44707 -99.10076 8722 ft 102 kts 235°
2026-05-04 01:30 19.44248 -99.10663 8656 ft 99 kts 252°
2026-05-04 01:31 19.44655 -99.11094 8501 ft 93 kts
2026-05-04 01:31 19.45021 -99.10640 8599 ft 91 kts 88°
2026-05-04 01:31 19.44642 -99.10159 8643 ft 97 kts 165°
2026-05-04 01:31 19.44009 -99.10396 8388 ft 109 kts 235°
2026-05-04 01:32 19.43648 -99.11059 8427 ft 95 kts 234°
2026-05-04 01:32 19.43133 -99.11523 8270 ft 100 kts 220°
2026-05-04 01:32 19.43178 -99.12034 8183 ft 80 kts 355°
2026-05-04 01:32 19.43384 -99.11649 8158 ft 76 kts 115°
2026-05-04 01:33 19.42834 -99.11513 8039 ft 87 kts 207°
2026-05-04 01:33 19.42470 -99.12000 7986 ft 88 kts 235°
2026-05-04 01:33 19.42306 -99.12603 8056 ft 80 kts 273°
2026-05-04 01:33 19.42114 -99.13150 8036 ft 90 kts 238°
2026-05-04 01:34 19.41778 -99.13741 7973 ft 95 kts 241°
2026-05-04 01:34 19.41404 -99.14329 7922 ft 97 kts 228°
2026-05-04 01:34 19.40809 -99.14361 7873 ft 102 kts 144°
2026-05-04 01:34 19.40246 -99.13941 8147 ft 91 kts 123°
2026-05-04 01:35 19.40294 -99.13334 8022 ft 96 kts 62°
2026-05-04 01:35 19.40626 -99.12762 8045 ft 99 kts 52°
2026-05-04 01:35 19.40932 -99.12040 7831 ft 112 kts 72°
2026-05-04 01:35 19.41196 -99.11292 7868 ft 108 kts 61°
2026-05-04 01:36 19.41547 -99.10595 7835 ft 106 kts 62°
2026-05-04 01:36 19.41925 -99.09960 7876 ft 103 kts 52°
2026-05-04 01:36 19.42294 -99.09330 7828 ft 98 kts 55°
2026-05-04 01:36 19.42640 -99.08679 7439 ft 98 kts 54°
2026-05-04 01:37 19.42965 -99.08102 7298 ft 73 kts 55°
2026-05-04 01:37 19.43145 -99.07793 7299 ft 27 kts 54°
2026-05-04 01:37 19.43141 -99.07680 7297 ft 15 kts 203°
2026-05-04 01:37 19.43101 -99.07694 7297 ft 0 kts 207°
2026-05-04 01:38 19.43080 -99.07706 7297 ft 7 kts 207°
2026-05-04 01:38 19.43023 -99.07744 7297 ft 12 kts 204°
2026-05-04 01:38 19.42940 -99.07709 7297 ft 18 kts 133°
2026-05-04 01:39 19.42872 -99.07711 7297 ft 12 kts 237°
2026-05-04 01:39 19.42801 -99.07741 7297 ft 14 kts 159°
2026-05-04 01:39 19.42773 -99.07768 7297 ft 0 kts 240°